SCP
0 0 0 0 0 0 0 0 0 0 0 0 0 0 0 0 0 0 0 0 0 0 0 0 0 0 0 0 0 0 0 0 0 0 0 0 0 0 0 0 0 0 0 0
0 0 0 0 0 0 0 0 0 0 0 0 0 0 0 0 0 0 0 0 0 0 0 0 0 0 0 0 0 0 0 0 0 0 0 0 0 0 0 0 0 0 0 0
0 0 0 0 0 0 0 0 0 0 0 0 0 0 0 0 0 0 0 0 0 0 0 0 0 0 0 0 0 0 0 0 0 0 0 0 0 0 0 0 0 0 0 0
0 0 0 0 0 0 0 0 0 0 0 0 0 0 0 0 0 0 0 0 0 0 0 0 0 0 0 0 0 0 0 0 0 0 0 0 0 0 0 0 0 0 0 0
0 0 0 0 0 0 0 0 0 0 0 0 0 0 0 0 0 0 0 0 0 0 0 0 0 0 0 0 0 0 0 0 0 0 0 0 -0 -0 -0 -0 0 0 0 0
0 0 0 0 0 0 0 0 0 0 0 0 0 0 0 0 0 0 0 0 0 0 0 0 0 0 0 0 0 0 0 0 0 -0 -0 -0 -0 -0 -0 0 0 0 -0 0
0 0 0 0 0 0 0 0 0 0 0 0 0 0 0 0 0 0 0 0 0 0 0 0 0 0 0 0 0 0 0 0 -0 -0 -0 -0 -0 -0 -0 -0 -0 -0 -0 0
0 0 0 0 0 0 0 0 0 0 0 0 0 0 0 0 0 0 0 0 0 0 0 0 0 0 0 0 0 0 0 -0 -0 0 0 0 0 0 0 0 0 0 0 0
0 0 0 0 0 0 0 0 0 0 0 0 0 0 0 0 0 0 0 0 0 0 0 0 0 0 0 0 -0 -0 -0 0 0 0 0 0 0 0 0 0 0 0 0 0
0 0 0 0 0 0 0 0 0 0 0 0 0 0 0 0 0 0 0 0 0 0 0 0 0 0 0 0 -0 -0 0 0 0 0 0 0 0 0 -0 -0 -0 -0 0 0
0 0 0 0 0 0 0 0 0 0 0 0 0 0 0 0 0 0 0 0 0 0 0 0 0 0 0 -0 0 0 0 0 0 -0 -0 -0 -0 0 0 0 0 0 0 0
0 0 0 0 0 0 0 0 0 0 0 0 0 0 0 0 0 0 0 0 0 0 0 0 0 0 0 0 0 0 0 0 0 0 0 0 0 0 0 0 0 0 0 0
0 0 0 0 0 0 0 0 0 0 0 0 0 0 0 0 0 0 0 0 0 0 0 0 0 0 0 0 0 0 0 0 0 0 0 0 0 0 0 0 0 0 0 0
0 0 0 0 0 0 0 0 0 0 0 0 0 0 0 0 0 0 0 0 0 0 0 0 0 0 0 0 0 0 0 0 0 0 0 0 0 0 0 0 0 0 0 0
0 0 0 0 0 0 0 0 0 0 0 0 0 0 0 0 0 0 0 0 0 0 0 0 0 0 0 0 0 0 0 0 0 0 0 0 0 0 0 0 0 0 0 0
0 0 0 0 0 0 0 0 0 0 0 0 0 0 0 0 0 0 0 0 0 0 0 0 0 0 0 0 0 0 0 0 0 0 0 0 0 0 0 0 0 0 0 0
0 0 0 0 0 0 0 0 0 0 0 0 0 0 0 0 0 0 0 0 0 0 0 0 0 0 0 0 0 0 0 0 0 0 0 0 0 0 0 0 0 0 0 0
0 0 0 0 0 0 0 0 0 0 0 0 0 0 0 0 0 0 0 0 0 0 0 0 0 0 0 0 0 0 0 0 0 0 0 0 0 0 0 0 0 0 0 0
0 0 0 0 0 0 0 0 0 0 0 0 0 0 0 0 0 0 0 0 0 0 0 0 0 0 0 0 0 0 0 0 0 0 0 0 0 0 0 0 0 0 0 0
0 0 0 0 0 0 0 0 0 0 0 0 0 0 0 0 0 0 0 0 0 0 0 0 0 0 0 0 0 0 0 0 0 0 0 0 0 0 0 0 0 0 0 0
0 0 0 0 0 0 0 0 0 0 0 0 0 0 0 0 0 0 0 0 0 0 0 0 0 0 0 0 0 0 0 0 0 0 0 0 0 0 0 0 0 0 0 0
0 0 0 0 0 0 0 0 0 0 0 0 0 0 0 0 0 0 0 0 0 0 0 0 0 0 0 0 0 0 0 0 0 0 0 0 0 0 0 0 0 0 0 0
0 0 0 0 0 0 0 0 0 0 0 0 0 0 0 0 0 0 0 0 0 0 0 0 0 0 0 0 0 0 0 0 0 0 0 0 0 0 0 0 0 0 0 0
0 0 0 0 0 0 0 0 0 0 0 0 0 0 0 0 0 0 0 0 0 0 0 0 0 0 0 0 0 0 0 0 0 0 0 0 0 0 0 0 0 0 0 0
0 0 0 0 0 0 0 0 0 0 0 0 0 0 0 0 0 0 0 0 0 0 0 0 0 0 0 0 0 0 0 0 0 0 0 0 0 0 0 0 0 0 0 0
0 0 0 0 0 0 0 0 0 0 0 0 0 0 0 0 0 0 0 0 0 0 0 0 0 0 0 0 0 0 0 0 0 0 0 0 0 0 0 0 0 0 0 -0
Wind_Speed_500mb
7 7 17 25 19 4 6 9 12 8 7 2 12 11 10 23 28 29 28 31 37 41 39 38 38 36 36 32 32 34 32 36 28 22 19 16 10 13 13 10 5 5 8 9
6 14 18 8 9 8 4 5 11 8 9 10 11 7 7 18 10 17 30 35 42 46 47 49 53 55 56 56 53 49 48 42 37 31 32 30 28 28 26 23 20 18 15 14
16 11 9 14 8 10 10 12 9 13 5 6 2 8 8 8 21 27 27 33 37 42 47 48 50 53 53 56 57 56 55 52 49 46 40 36 34 34 28 27 24 26 24 23
13 10 12 9 12 18 8 17 13 8 6 8 2 9 6 9 9 9 24 31 35 38 42 45 48 49 51 52 49 49 49 48 45 39 34 30 30 31 34 30 28 25 24 22
13 14 9 12 19 13 13 10 12 9 8 1 5 0 5 12 10 12 24 31 35 38 40 41 44 45 45 43 42 40 38 37 36 31 31 30 31 32 27 23 22 24 27 29
9 3 12 14 4 13 14 12 12 8 5 5 18 15 8 12 13 19 30 38 39 38 38 40 40 39 38 35 33 30 29 32 30 27 27 28 28 27 24 26 27 30 32 34
3 10 5 7 9 4 8 12 1 4 2 11 2 8 11 5 4 32 43 51 46 40 37 37 36 33 31 28 25 24 22 25 25 24 25 27 29 30 33 36 39 42 43 45
13 8 20 14 14 14 13 13 10 13 7 5 5 11 8 5 4 44 58 59 48 42 36 34 31 28 27 24 20 17 18 21 21 22 23 24 24 25 27 29 32 37 41 46
12 11 2 6 8 12 12 9 8 11 4 5 9 6 3 8 11 36 50 59 54 47 40 33 28 24 22 18 16 12 12 14 14 14 14 15 16 19 20 23 26 30 33 38
11 3 2 5 8 6 7 11 7 3 2 8 7 9 9 15 21 22 33 51 58 46 39 34 27 23 21 17 13 10 9 11 16 20 25 27 28 28 32 39 45 51 56 61
10 6 2 7 12 17 6 6 7 6 8 9 3 10 6 23 35 41 46 64 64 55 44 34 27 24 23 18 10 6 8 12 16 21 25 28 30 34 40 46 51 56 61 66
14 7 8 12 4 1 4 15 14 9 10 6 5 16 6 11 36 48 55 69 67 55 45 36 29 28 26 18 10 4 5 12 18 24 29 33 35 40 45 50 54 60 66 70
12 3 1 9 2 3 9 9 7 9 7 20 9 11 8 13 26 44 50 68 64 56 48 41 39 35 29 24 18 11 10 17 23 30 36 39 41 46 51 52 57 64 71 76
4 6 14 19 8 7 8 11 9 10 9 10 31 9 7 11 19 36 58 64 60 57 53 50 46 39 34 29 23 19 17 25 31 36 40 42 48 53 55 60 66 73 78 85
6 11 4 5 4 2 8 10 17 21 31 19 28 20 17 23 29 50 60 52 51 51 53 52 47 41 38 35 30 25 27 33 35 37 43 48 53 55 59 65 70 76 83 90
3 4 7 7 7 8 9 17 15 22 7 10 4 20 6 18 24 42 48 45 47 51 51 50 45 42 40 38 35 35 31 34 36 42 47 52 55 59 64 68 75 82 90 95
15 12 9 7 2 3 14 20 29 13 12 16 22 20 11 8 17 44 45 41 46 52 50 48 44 41 39 40 38 36 36 37 41 46 51 55 58 62 68 75 83 90 95 97
11 10 1 7 4 10 6 4 6 16 14 13 3 6 14 14 38 36 33 35 47 47 46 40 34 37 42 43 43 41 38 42 46 51 55 57 61 67 74 82 87 90 92 93
5 10 6 7 7 14 11 11 14 15 16 16 16 12 18 15 18 19 34 38 42 46 35 23 27 37 42 45 45 42 43 45 49 54 56 59 64 72 80 85 86 86 89 92
5 7 7 7 9 16 6 6 12 10 12 15 32 19 27 32 6 9 37 41 43 42 29 20 23 35 43 48 47 45 45 47 52 54 55 59 68 75 80 80 81 83 86 90
7 3 12 9 8 15 9 11 16 12 13 8 27 36 44 10 18 6 15 41 45 40 29 27 30 37 43 46 47 47 47 50 51 52 57 65 71 74 75 77 77 80 83 86
14 15 8 7 5 19 27 10 16 9 6 20 24 28 33 33 21 20 19 27 44 36 31 34 39 41 44 47 48 47 47 49 51 56 63 68 71 71 73 74 73 74 77 82
5 13 11 18 12 3 53 6 25 28 33 35 31 31 33 33 31 31 37 41 36 29 32 36 42 47 50 51 47 46 46 47 51 59 66 69 71 71 69 71 72 74 74 76
9 8 5 7 5 11 37 44 24 37 34 36 34 31 40 40 36 38 36 45 42 37 41 44 50 54 53 50 47 44 43 46 54 61 64 65 67 66 65 66 67 70 71 74
11 20 12 3 6 3 29 39 45 48 46 44 39 36 46 41 37 38 40 41 47 46 45 48 53 54 51 48 42 40 42 48 53 59 61 61 62 62 64 63 62 65 64 63
18 13 9 10 33 25 24 39 45 51 50 47 47 50 51 49 48 47 46 44 47 48 49 52 54 53 49 43 40 39 42 46 52 56 57 57 58 59 60 63 66 49 56 57
Wind_Direction_500mb
170 132 207 202 202 194 156 185 203 238 248 144 248 254 360 22 94 111 115 109 101 94 91 94 96 97 98 100 103 100 105 101 109 119 124 119 115 109 87 67 34 326 310 301
86 225 226 142 177 197 212 201 239 280 256 168 254 249 51 34 54 124 127 118 112 108 102 98 97 96 94 94 94 97 96 100 98 100 94 91 88 85 73 64 57 49 33 18
183 201 152 176 171 189 215 201 210 226 336 253 318 258 188 64 93 119 124 125 120 113 108 104 99 95 94 92 90 90 91 90 89 88 89 90 88 90 86 69 57 44 34 25
236 230 175 168 206 185 240 204 180 186 122 233 137 274 193 153 128 95 136 136 128 121 113 108 103 97 92 89 90 90 91 90 90 92 91 84 73 59 55 49 45 39 33 25
231 169 170 198 227 156 229 137 172 163 170 65 239 10 242 135 185 180 164 150 140 130 122 112 105 99 93 91 87 83 80 79 75 68 63 58 57 59 54 45 32 26 17 11
235 194 171 199 99 177 138 78 50 54 95 262 221 178 221 194 192 168 175 164 152 142 131 121 112 106 99 92 87 81 75 73 67 59 55 46 42 40 26 17 8 5 360 356
208 212 190 158 99 77 100 106 26 338 323 231 81 159 257 182 182 175 169 171 163 152 141 132 125 119 112 105 94 83 76 73 65 53 45 35 27 17 11 4 358 354 350 346
177 243 163 182 187 175 188 167 163 207 207 267 355 234 260 339 340 171 166 168 166 161 155 146 139 134 125 116 107 94 77 69 58 43 32 22 9 1 354 345 340 337 334 332
168 271 90 145 144 146 186 193 163 110 72 55 212 280 210 99 99 140 159 171 175 174 169 162 152 142 131 122 114 101 80 66 52 34 20 3 349 346 343 339 336 331 331 329
214 180 105 144 105 47 167 164 95 14 204 250 274 268 228 196 176 168 175 186 183 180 178 173 165 159 152 151 138 108 69 36 19 5 356 349 344 346 347 345 342 340 338 335
152 147 198 131 202 173 146 178 67 135 152 182 261 254 219 195 185 180 184 190 189 187 189 183 176 176 177 166 140 84 34 7 357 356 350 343 335 332 332 329 330 329 329 327
194 142 167 195 169 289 191 186 162 167 217 232 163 255 343 211 182 180 188 194 194 195 194 192 193 194 187 182 189 221 343 334 333 329 328 324 321 320 318 318 320 321 321 320
177 163 69 352 94 348 215 201 140 103 73 218 189 253 20 114 157 185 189 198 197 199 200 200 200 198 194 200 210 233 284 308 307 311 314 313 310 310 311 313 315 316 317 317
143 157 184 216 176 131 171 199 175 149 188 212 234 272 214 172 177 183 198 199 200 205 210 209 204 203 204 210 221 237 277 302 300 302 305 307 309 311 312 315 316 316 317 318
103 215 129 102 72 201 212 199 188 198 222 206 250 210 202 195 195 195 192 193 202 209 210 211 210 210 214 217 223 241 270 290 295 303 307 308 309 308 310 311 311 313 315 317
148 185 141 202 22 334 282 248 212 227 225 255 284 254 214 191 175 172 188 194 203 211 213 210 213 213 214 218 232 245 267 285 292 300 304 306 306 307 308 310 313 316 317 317
159 139 151 208 49 205 271 236 209 194 188 177 217 238 161 175 183 192 203 212 224 216 206 205 208 216 222 229 238 250 265 278 290 299 303 305 306 308 312 315 316 316 316 315
143 127 41 136 99 234 252 127 72 233 243 209 84 197 175 200 212 227 227 222 218 207 204 209 218 220 226 236 244 253 267 282 294 302 305 306 308 311 314 315 315 315 316 316
340 135 118 164 209 324 261 198 170 170 258 195 212 161 167 156 174 224 212 215 210 201 201 211 224 233 239 243 247 256 268 284 298 303 304 306 310 312 314 314 315 316 315 316
38 31 176 141 184 218 264 270 140 103 291 222 208 155 153 152 154 230 201 202 200 199 207 228 234 235 240 243 247 258 273 289 298 300 303 308 311 313 314 315 316 317 316 316
125 120 213 189 216 284 203 176 149 118 254 194 188 173 165 181 201 169 184 209 211 209 233 247 249 245 241 245 255 267 279 291 297 301 307 311 314 315 316 316 318 317 316 316
158 165 194 109 190 263 153 113 167 202 150 161 173 188 200 222 221 236 238 210 203 221 245 251 248 244 245 251 259 269 283 293 299 306 312 315 315 316 316 315 318 318 319 320
249 188 179 185 206 315 180 156 190 167 163 179 193 216 235 217 221 234 223 203 216 249 259 255 249 242 245 252 262 274 287 294 303 309 313 314 314 315 316 318 321 322 324 324
249 149 176 94 221 217 202 218 211 206 219 223 231 239 216 218 233 239 239 234 235 257 258 252 243 242 247 255 266 279 288 298 306 311 313 313 313 315 317 320 324 324 328 328
198 139 159 249 255 232 241 229 225 231 237 244 249 235 224 233 247 240 244 243 247 259 260 252 244 243 249 258 269 279 289 299 308 313 314 315 315 317 318 321 326 328 332 329
173 159 164 212 207 190 218 235 244 245 249 258 261 247 248 246 261 252 252 252 253 255 257 250 243 245 252 260 269 278 289 302 309 311 313 315 315 316 319 322 323 332 332 335
Wind_Speed_850mb
7 7 17 25 19 4 6 9 12 8 7 2 12 11 10 23 28 29 28 31 37 41 39 38 38 36 36 32 32 34 32 36 28 22 19 16 10 13 13 10 5 5 8 9
6 14 18 8 9 8 4 5 11 8 9 10 11 7 7 18 10 17 30 35 42 46 47 49 53 55 56 56 53 49 48 42 37 31 32 30 28 28 26 23 20 18 15 14
16 11 9 14 8 10 10 12 9 13 5 6 2 8 8 8 21 27 27 33 37 42 47 48 50 53 53 56 57 56 55 52 49 46 40 36 34 34 28 27 24 26 24 23
13 10 12 9 12 18 8 17 13 8 6 8 2 9 6 9 9 9 24 31 35 38 42 45 48 49 51 52 49 49 49 48 45 39 34 30 30 31 34 30 28 25 24 22
13 14 9 12 19 13 13 10 12 9 8 1 5 0 5 12 10 12 24 31 35 38 40 41 44 45 45 43 42 40 38 37 36 31 31 30 31 32 27 23 22 24 27 29
9 3 12 14 4 13 14 12 12 8 5 5 18 15 8 12 13 19 30 38 39 38 38 40 40 39 38 35 33 30 29 32 30 27 27 28 28 27 24 26 27 30 32 34
3 10 5 7 9 4 8 12 1 4 2 11 2 8 11 5 4 32 43 51 46 40 37 37 36 33 31 28 25 24 22 25 25 24 25 27 29 30 33 36 39 42 43 45
13 8 20 14 14 14 13 13 10 13 7 5 5 11 8 5 4 44 58 59 48 42 36 34 31 28 27 24 20 17 18 21 21 22 23 24 24 25 27 29 32 37 41 46
12 11 2 6 8 12 12 9 8 11 4 5 9 6 3 8 11 36 50 59 54 47 40 33 28 24 22 18 16 12 12 14 14 14 14 15 16 19 20 23 26 30 33 38
11 3 2 5 8 6 7 11 7 3 2 8 7 9 9 15 21 22 33 51 58 46 39 34 27 23 21 17 13 10 9 11 16 20 25 27 28 28 32 39 45 51 56 61
10 6 2 7 12 17 6 6 7 6 8 9 3 10 6 23 35 41 46 64 64 55 44 34 27 24 23 18 10 6 8 12 16 21 25 28 30 34 40 46 51 56 61 66
14 7 8 12 4 1 4 15 14 9 10 6 5 16 6 11 36 48 55 69 67 55 45 36 29 28 26 18 10 4 5 12 18 24 29 33 35 40 45 50 54 60 66 70
12 3 1 9 2 3 9 9 7 9 7 20 9 11 8 13 26 44 50 68 64 56 48 41 39 35 29 24 18 11 10 17 23 30 36 39 41 46 51 52 57 64 71 76
4 6 14 19 8 7 8 11 9 10 9 10 31 9 7 11 19 36 58 64 60 57 53 50 46 39 34 29 23 19 17 25 31 36 40 42 48 53 55 60 66 73 78 85
6 11 4 5 4 2 8 10 17 21 31 19 28 20 17 23 29 50 60 52 51 51 53 52 47 41 38 35 30 25 27 33 35 37 43 48 53 55 59 65 70 76 83 90
3 4 7 7 7 8 9 17 15 22 7 10 4 20 6 18 24 42 48 45 47 51 51 50 45 42 40 38 35 35 31 34 36 42 47 52 55 59 64 68 75 82 90 95
15 12 9 7 2 3 14 20 29 13 12 16 22 20 11 8 17 44 45 41 46 52 50 48 44 41 39 40 38 36 36 37 41 46 51 55 58 62 68 75 83 90 95 97
11 10 1 7 4 10 6 4 6 16 14 13 3 6 14 14 38 36 33 35 47 47 46 40 34 37 42 43 43 41 38 42 46 51 55 57 61 67 74 82 87 90 92 93
5 10 6 7 7 14 11 11 14 15 16 16 16 12 18 15 18 19 34 38 42 46 35 23 27 37 42 45 45 42 43 45 49 54 56 59 64 72 80 85 86 86 89 92
5 7 7 7 9 16 6 6 12 10 12 15 32 19 27 32 6 9 37 41 43 42 29 20 23 35 43 48 47 45 45 47 52 54 55 59 68 75 80 80 81 83 86 90
7 3 12 9 8 15 9 11 16 12 13 8 27 36 44 10 18 6 15 41 45 40 29 27 30 37 43 46 47 47 47 50 51 52 57 65 71 74 75 77 77 80 83 86
14 15 8 7 5 19 27 10 16 9 6 20 24 28 33 33 21 20 19 27 44 36 31 34 39 41 44 47 48 47 47 49 51 56 63 68 71 71 73 74 73 74 77 82
5 13 11 18 12 3 53 6 25 28 33 35 31 31 33 33 31 31 37 41 36 29 32 36 42 47 50 51 47 46 46 47 51 59 66 69 71 71 69 71 72 74 74 76
9 8 5 7 5 11 37 44 24 37 34 36 34 31 40 40 36 38 36 45 42 37 41 44 50 54 53 50 47 44 43 46 54 61 64 65 67 66 65 66 67 70 71 74
11 20 12 3 6 3 29 39 45 48 46 44 39 36 46 41 37 38 40 41 47 46 45 48 53 54 51 48 42 40 42 48 53 59 61 61 62 62 64 63 62 65 64 63
18 13 9 10 33 25 24 39 45 51 50 47 47 50 51 49 48 47 46 44 47 48 49 52 54 53 49 43 40 39 42 46 52 56 57 57 58 59 60 63 66 49 56 57
Wind_Direction_850mb
170 132 207 202 202 194 156 185 203 238 248 144 248 254 360 22 94 111 115 109 101 94 91 94 96 97 98 100 103 100 105 101 109 119 124 119 115 109 87 67 34 326 310 301
86 225 226 142 177 197 212 201 239 280 256 168 254 249 51 34 54 124 127 118 112 108 102 98 97 96 94 94 94 97 96 100 98 100 94 91 88 85 73 64 57 49 33 18
183 201 152 176 171 189 215 201 210 226 336 253 318 258 188 64 93 119 124 125 120 113 108 104 99 95 94 92 90 90 91 90 89 88 89 90 88 90 86 69 57 44 34 25
236 230 175 168 206 185 240 204 180 186 122 233 137 274 193 153 128 95 136 136 128 121 113 108 103 97 92 89 90 90 91 90 90 92 91 84 73 59 55 49 45 39 33 25
231 169 170 198 227 156 229 137 172 163 170 65 239 10 242 135 185 180 164 150 140 130 122 112 105 99 93 91 87 83 80 79 75 68 63 58 57 59 54 45 32 26 17 11
235 194 171 199 99 177 138 78 50 54 95 262 221 178 221 194 192 168 175 164 152 142 131 121 112 106 99 92 87 81 75 73 67 59 55 46 42 40 26 17 8 5 360 356
208 212 190 158 99 77 100 106 26 338 323 231 81 159 257 182 182 175 169 171 163 152 141 132 125 119 112 105 94 83 76 73 65 53 45 35 27 17 11 4 358 354 350 346
177 243 163 182 187 175 188 167 163 207 207 267 355 234 260 339 340 171 166 168 166 161 155 146 139 134 125 116 107 94 77 69 58 43 32 22 9 1 354 345 340 337 334 332
168 271 90 145 144 146 186 193 163 110 72 55 212 280 210 99 99 140 159 171 175 174 169 162 152 142 131 122 114 101 80 66 52 34 20 3 349 346 343 339 336 331 331 329
214 180 105 144 105 47 167 164 95 14 204 250 274 268 228 196 176 168 175 186 183 180 178 173 165 159 152 151 138 108 69 36 19 5 356 349 344 346 347 345 342 340 338 335
152 147 198 131 202 173 146 178 67 135 152 182 261 254 219 195 185 180 184 190 189 187 189 183 176 176 177 166 140 84 34 7 357 356 350 343 335 332 332 329 330 329 329 327
194 142 167 195 169 289 191 186 162 167 217 232 163 255 343 211 182 180 188 194 194 195 194 192 193 194 187 182 189 221 343 334 333 329 328 324 321 320 318 318 320 321 321 320
177 163 69 352 94 348 215 201 140 103 73 218 189 253 20 114 157 185 189 198 197 199 200 200 200 198 194 200 210 233 284 308 307 311 314 313 310 310 311 313 315 316 317 317
143 157 184 216 176 131 171 199 175 149 188 212 234 272 214 172 177 183 198 199 200 205 210 209 204 203 204 210 221 237 277 302 300 302 305 307 309 311 312 315 316 316 317 318
103 215 129 102 72 201 212 199 188 198 222 206 250 210 202 195 195 195 192 193 202 209 210 211 210 210 214 217 223 241 270 290 295 303 307 308 309 308 310 311 311 313 315 317
148 185 141 202 22 334 282 248 212 227 225 255 284 254 214 191 175 172 188 194 203 211 213 210 213 213 214 218 232 245 267 285 292 300 304 306 306 307 308 310 313 316 317 317
159 139 151 208 49 205 271 236 209 194 188 177 217 238 161 175 183 192 203 212 224 216 206 205 208 216 222 229 238 250 265 278 290 299 303 305 306 308 312 315 316 316 316 315
143 127 41 136 99 234 252 127 72 233 243 209 84 197 175 200 212 227 227 222 218 207 204 209 218 220 226 236 244 253 267 282 294 302 305 306 308 311 314 315 315 315 316 316
340 135 118 164 209 324 261 198 170 170 258 195 212 161 167 156 174 224 212 215 210 201 201 211 224 233 239 243 247 256 268 284 298 303 304 306 310 312 314 314 315 316 315 316
38 31 176 141 184 218 264 270 140 103 291 222 208 155 153 152 154 230 201 202 200 199 207 228 234 235 240 243 247 258 273 289 298 300 303 308 311 313 314 315 316 317 316 316
125 120 213 189 216 284 203 176 149 118 254 194 188 173 165 181 201 169 184 209 211 209 233 247 249 245 241 245 255 267 279 291 297 301 307 311 314 315 316 316 318 317 316 316
158 165 194 109 190 263 153 113 167 202 150 161 173 188 200 222 221 236 238 210 203 221 245 251 248 244 245 251 259 269 283 293 299 306 312 315 315 316 316 315 318 318 319 320
249 188 179 185 206 315 180 156 190 167 163 179 193 216 235 217 221 234 223 203 216 249 259 255 249 242 245 252 262 274 287 294 303 309 313 314 314 315 316 318 321 322 324 324
249 149 176 94 221 217 202 218 211 206 219 223 231 239 216 218 233 239 239 234 235 257 258 252 243 242 247 255 266 279 288 298 306 311 313 313 313 315 317 320 324 324 328 328
198 139 159 249 255 232 241 229 225 231 237 244 249 235 224 233 247 240 244 243 247 259 260 252 244 243 249 258 269 279 289 299 308 313 314 315 315 317 318 321 326 328 332 329
173 159 164 212 207 190 218 235 244 245 249 258 261 247 248 246 261 252 252 252 253 255 257 250 243 245 252 260 269 278 289 302 309 311 313 315 315 316 319 322 323 332 332 335